Time,TemperatureF,DewpointF,PressureIn,WindDirection,WindDirectionDegrees,WindSpeedMPH,WindSpeedGustMPH,Humidity,HourlyPrecipIn,Conditions,Clouds,dailyrainin,SoftwareType,DateUTC
2013-01-01 00:05:00,70.3,60.0,30.19,SSE,150,0.0,-999.0,71,-99.99,,,0.00,weatherlink.com 1.10,2013-01-01 05:05:00,
2013-01-01 00:20:00,70.1,60.0,30.19,ESE,113,1.0,-999.0,71,-99.99,,,0.00,weatherlink.com 1.10,2013-01-01 05:20:00,
2013-01-01 00:35:00,70.1,60.0,30.18,SSE,153,0.0,-999.0,70,-99.99,,,0.00,weatherlink.com 1.10,2013-01-01 05:35:00,
2013-01-01 00:50:00,70.0,60.0,30.18,SSE,156,0.0,-999.0,70,-99.99,,,0.00,weatherlink.com 1.10,2013-01-01 05:50:00,
2013-01-01 01:05:00,69.9,60.0,30.18,SSE,159,0.0,-999.0,71,-99.99,,,0.00,weatherlink.com 1.10,2013-01-01 06:05:00,
2013-01-01 01:20:00,70.1,60.0,30.18,South,180,0.0,-999.0,70,-99.99,,,0.00,weatherlink.com 1.10,2013-01-01 06:20:00,
2013-01-01 01:35:00,70.3,59.0,30.17,East,86,1.0,-999.0,67,-99.99,,,0.00,weatherlink.com 1.10,2013-01-01 06:35:00,
2013-01-01 01:50:00,70.2,60.0,30.17,SSE,157,0.0,-999.0,69,-99.99,,,0.00,weatherlink.com 1.10,2013-01-01 06:50:00,
2013-01-01 02:05:00,69.9,60.0,30.17,SE,124,0.0,-999.0,71,-99.99,,,0.00,weatherlink.com 1.10,2013-01-01 07:05:00,
2013-01-01 02:20:00,69.6,60.0,30.17,ESE,121,0.0,-999.0,72,-99.99,,,0.00,weatherlink.com 1.10,2013-01-01 07:20:00,
2013-01-01 02:35:00,69.5,61.0,30.17,ESE,119,0.0,-999.0,73,-99.99,,,0.00,weatherlink.com 1.10,2013-01-01 07:35:00,
2013-01-01 02:50:00,69.9,61.0,30.17,East,99,2.0,-999.0,73,-99.99,,,0.00,weatherlink.com 1.10,2013-01-01 07:50:00,
2013-01-01 03:05:00,70.3,61.0,30.16,SSE,153,0.0,-999.0,73,-99.99,,,0.00,weatherlink.com 1.10,2013-01-01 08:05:00,
2013-01-01 03:20:00,70.2,61.0,30.16,SE,138,0.0,-999.0,73,-99.99,,,0.00,weatherlink.com 1.10,2013-01-01 08:20:00,
2013-01-01 03:35:00,70.2,60.0,30.17,South,184,0.0,-999.0,71,-99.99,,,0.00,weatherlink.com 1.10,2013-01-01 08:35:00,
2013-01-01 03:50:00,70.1,59.0,30.17,SSE,148,0.0,-999.0,69,-99.99,,,0.00,weatherlink.com 1.10,2013-01-01 08:50:00,
2013-01-01 04:05:00,69.9,59.0,30.16,SE,140,0.0,-999.0,69,-99.99,,,0.00,weatherlink.com 1.10,2013-01-01 09:05:00,
2013-01-01 04:20:00,69.6,59.0,30.16,SSE,150,0.0,-999.0,69,-99.99,,,0.00,weatherlink.com 1.10,2013-01-01 09:20:00,
2013-01-01 04:35:00,69.5,60.0,30.15,SE,142,0.0,-999.0,71,-99.99,,,0.00,weatherlink.com 1.10,2013-01-01 09:35:00,
2013-01-01 04:50:00,69.6,59.0,30.15,ESE,111,0.0,-999.0,70,-99.99,,,0.00,weatherlink.com 1.10,2013-01-01 09:50:00,
2013-01-01 05:05:00,69.4,59.0,30.14,SE,126,0.0,-999.0,70,-99.99,,,0.00,weatherlink.com 1.10,2013-01-01 10:05:00,
2013-01-01 05:20:00,69.4,60.0,30.14,ESE,119,0.0,-999.0,71,-99.99,,,0.00,weatherlink.com 1.10,2013-01-01 10:20:00,
2013-01-01 05:35:00,68.9,60.0,30.14,ESE,118,0.0,-999.0,72,-99.99,,,0.00,weatherlink.com 1.10,2013-01-01 10:35:00,
2013-01-01 05:50:00,68.7,60.0,30.14,SE,141,0.0,-999.0,74,-99.99,,,0.00,weatherlink.com 1.10,2013-01-01 10:50:00,
2013-01-01 06:05:00,68.7,61.0,30.14,South,184,0.0,-999.0,75,-99.99,,,0.00,weatherlink.com 1.10,2013-01-01 11:05:00,
2013-01-01 06:20:00,69.0,60.0,30.13,SSE,164,4.0,-999.0,74,-99.99,,,0.00,weatherlink.com 1.10,2013-01-01 11:20:00,
2013-01-01 06:35:00,69.2,59.0,30.13,South,186,2.0,-999.0,71,-99.99,,,0.00,weatherlink.com 1.10,2013-01-01 11:35:00,
2013-01-01 06:50:00,69.2,59.0,30.13,SSE,165,1.0,-999.0,71,-99.99,,,0.00,weatherlink.com 1.10,2013-01-01 11:50:00,
2013-01-01 07:05:00,69.3,59.0,30.13,SE,126,1.0,-999.0,70,-99.99,,,0.00,weatherlink.com 1.10,2013-01-01 12:05:00,
2013-01-01 07:20:00,69.3,59.0,30.14,SSE,150,2.0,-999.0,70,-99.99,,,0.00,weatherlink.com 1.10,2013-01-01 12:20:00,
2013-01-01 07:35:00,69.9,60.0,30.14,SSE,155,1.0,-999.0,70,-99.99,,,0.00,weatherlink.com 1.10,2013-01-01 12:35:00,
2013-01-01 07:50:00,71.2,60.0,30.14,SE,140,1.0,-999.0,68,-99.99,,,0.00,weatherlink.com 1.10,2013-01-01 12:50:00,
2013-01-01 08:05:00,71.2,61.0,30.14,SSE,156,1.0,-999.0,69,-99.99,,,0.00,weatherlink.com 1.10,2013-01-01 13:05:00,
2013-01-01 08:20:00,71.6,60.0,30.14,SSE,152,1.0,-999.0,67,-99.99,,,0.00,weatherlink.com 1.10,2013-01-01 13:20:00,
2013-01-01 08:35:00,73.0,60.0,30.15,ESE,120,1.0,-999.0,65,-99.99,,,0.00,weatherlink.com 1.10,2013-01-01 13:35:00,
2013-01-01 08:51:00,72.8,60.0,30.15,South,169,6.0,-999.0,65,-99.99,,,0.00,weatherlink.com 1.10,2013-01-01 13:51:00,
2013-01-01 09:06:00,73.2,61.0,30.15,SE,128,4.0,-999.0,65,-99.99,,,0.00,weatherlink.com 1.10,2013-01-01 14:06:00,
2013-01-01 09:21:00,73.5,61.0,30.15,South,188,4.0,-999.0,64,-99.99,,,0.00,weatherlink.com 1.10,2013-01-01 14:21:00,
2013-01-01 09:36:00,74.3,61.0,30.16,SSE,159,5.0,-999.0,63,-99.99,,,0.00,weatherlink.com 1.10,2013-01-01 14:36:00,
2013-01-01 09:51:00,74.6,61.0,30.16,East,91,8.0,-999.0,62,-99.99,,,0.00,weatherlink.com 1.10,2013-01-01 14:51:00,
2013-01-01 10:06:00,74.7,62.0,30.16,SE,136,7.0,-999.0,65,-99.99,,,0.00,weatherlink.com 1.10,2013-01-01 15:06:00,
2013-01-01 10:21:00,75.3,62.0,30.15,South,178,9.0,-999.0,64,-99.99,,,0.00,weatherlink.com 1.10,2013-01-01 15:21:00,
2013-01-01 10:36:00,75.7,62.0,30.14,SSW,207,4.0,-999.0,63,-99.99,,,0.00,weatherlink.com 1.10,2013-01-01 15:36:00,
2013-01-01 10:51:00,76.3,62.0,30.14,South,184,4.0,-999.0,61,-99.99,,,0.00,weatherlink.com 1.10,2013-01-01 15:51:00,
2013-01-01 11:06:00,76.8,62.0,30.13,SSE,162,8.0,-999.0,60,-99.99,,,0.00,weatherlink.com 1.10,2013-01-01 16:06:00,
2013-01-01 11:21:00,76.9,63.0,30.14,SSE,153,7.0,-999.0,62,-99.99,,,0.00,weatherlink.com 1.10,2013-01-01 16:21:00,
2013-01-01 11:36:00,77.5,61.0,30.13,South,173,10.0,-999.0,58,-99.99,,,0.00,weatherlink.com 1.10,2013-01-01 16:36:00,
2013-01-01 11:51:00,77.2,63.0,30.12,SSW,192,4.0,-999.0,61,-99.99,,,0.00,weatherlink.com 1.10,2013-01-01 16:51:00,
2013-01-01 12:06:00,77.3,62.0,30.11,SSE,159,8.0,-999.0,59,-99.99,,,0.00,weatherlink.com 1.10,2013-01-01 17:06:00,
2013-01-01 12:21:00,78.1,62.0,30.10,SE,124,7.0,-999.0,59,-99.99,,,0.00,weatherlink.com 1.10,2013-01-01 17:21:00,
2013-01-01 12:36:00,77.9,62.0,30.09,SSE,155,11.0,-999.0,58,-99.99,,,0.00,weatherlink.com 1.10,2013-01-01 17:36:00,
2013-01-01 12:51:00,78.1,62.0,30.08,SE,141,11.0,-999.0,57,-99.99,,,0.00,weatherlink.com 1.10,2013-01-01 17:51:00,
2013-01-01 13:06:00,78.3,63.0,30.07,NE,36,3.0,-999.0,59,-99.99,,,0.00,weatherlink.com 1.10,2013-01-01 18:06:00,
2013-01-01 13:21:00,78.6,62.0,30.07,SSE,154,5.0,-999.0,58,-99.99,,,0.00,weatherlink.com 1.10,2013-01-01 18:21:00,
2013-01-01 13:36:00,78.8,63.0,30.07,SW,219,7.0,-999.0,58,-99.99,,,0.00,weatherlink.com 1.10,2013-01-01 18:36:00,
2013-01-01 13:51:00,79.3,63.0,30.06,South,175,11.0,-999.0,57,-99.99,,,0.00,weatherlink.com 1.10,2013-01-01 18:51:00,
2013-01-01 14:06:00,78.9,63.0,30.05,SW,230,3.0,-999.0,58,-99.99,,,0.00,weatherlink.com 1.10,2013-01-01 19:06:00,
2013-01-01 14:21:00,78.9,63.0,30.05,SSW,194,4.0,-999.0,58,-99.99,,,0.00,weatherlink.com 1.10,2013-01-01 19:21:00,
2013-01-01 14:36:00,79.3,63.0,30.05,SSE,156,2.0,-999.0,57,-99.99,,,0.00,weatherlink.com 1.10,2013-01-01 19:36:00,
2013-01-01 14:51:00,78.8,63.0,30.05,South,179,2.0,-999.0,58,-99.99,,,0.00,weatherlink.com 1.10,2013-01-01 19:51:00,
2013-01-01 15:06:00,79.0,62.0,30.05,SSE,152,4.0,-999.0,57,-99.99,,,0.00,weatherlink.com 1.10,2013-01-01 20:06:00,
2013-01-01 15:21:00,78.6,63.0,30.05,SE,140,4.0,-999.0,59,-99.99,,,0.00,weatherlink.com 1.10,2013-01-01 20:21:00,
2013-01-01 15:36:00,78.5,62.0,30.05,South,184,5.0,-999.0,58,-99.99,,,0.00,weatherlink.com 1.10,2013-01-01 20:36:00,
2013-01-01 15:51:00,77.9,63.0,30.04,SE,141,4.0,-999.0,60,-99.99,,,0.00,weatherlink.com 1.10,2013-01-01 20:51:00,
2013-01-01 16:06:00,77.2,63.0,30.04,South,173,4.0,-999.0,62,-99.99,,,0.00,weatherlink.com 1.10,2013-01-01 21:06:00,
2013-01-01 16:21:00,76.8,63.0,30.04,SE,127,4.0,-999.0,62,-99.99,,,0.00,weatherlink.com 1.10,2013-01-01 21:21:00,
2013-01-01 16:36:00,76.0,63.0,30.04,SSE,158,1.0,-999.0,64,-99.99,,,0.00,weatherlink.com 1.10,2013-01-01 21:36:00,
2013-01-01 16:51:00,75.7,63.0,30.04,SSE,167,5.0,-999.0,65,-99.99,,,0.00,weatherlink.com 1.10,2013-01-01 21:51:00,
2013-01-01 17:06:00,75.2,65.0,30.04,South,190,1.0,-999.0,70,-99.99,,,0.00,weatherlink.com 1.10,2013-01-01 22:06:00,
2013-01-01 17:21:00,74.9,64.0,30.04,SSE,157,2.0,-999.0,68,-99.99,,,0.00,weatherlink.com 1.10,2013-01-01 22:21:00,
2013-01-01 17:36:00,74.8,63.0,30.04,SSE,163,6.0,-999.0,67,-99.99,,,0.00,weatherlink.com 1.10,2013-01-01 22:36:00,
2013-01-01 17:51:00,74.6,63.0,30.04,SSE,152,2.0,-999.0,67,-99.99,,,0.00,weatherlink.com 1.10,2013-01-01 22:51:00,
2013-01-01 18:06:00,74.4,63.0,30.05,SE,145,1.0,-999.0,68,-99.99,,,0.00,weatherlink.com 1.10,2013-01-01 23:06:00,
2013-01-01 18:21:00,74.3,63.0,30.05,SE,126,2.0,-999.0,68,-99.99,,,0.00,weatherlink.com 1.10,2013-01-01 23:21:00,
2013-01-01 18:36:00,74.2,63.0,30.05,SSE,161,5.0,-999.0,67,-99.99,,,0.00,weatherlink.com 1.10,2013-01-01 23:36:00,
2013-01-01 18:51:00,74.2,63.0,30.05,South,188,3.0,-999.0,67,-99.99,,,0.00,weatherlink.com 1.10,2013-01-01 23:51:00,
2013-01-01 19:06:00,74.0,63.0,30.05,South,175,0.0,-999.0,69,-99.99,,,0.00,weatherlink.com 1.10,2013-01-02 00:06:00,
2013-01-01 19:21:00,73.9,63.0,30.06,SSE,164,2.0,-999.0,69,-99.99,,,0.00,weatherlink.com 1.10,2013-01-02 00:21:00,
2013-01-01 19:36:00,73.7,62.0,30.06,South,172,0.0,-999.0,67,-99.99,,,0.00,weatherlink.com 1.10,2013-01-02 00:36:00,
2013-01-01 19:51:00,73.3,62.0,30.06,SSE,158,0.0,-999.0,67,-99.99,,,0.00,weatherlink.com 1.10,2013-01-02 00:51:00,
2013-01-01 20:06:00,72.0,62.0,30.06,SSE,163,0.0,-999.0,70,-99.99,,,0.00,weatherlink.com 1.10,2013-01-02 01:06:00,
2013-01-01 20:21:00,71.1,61.0,30.06,SSE,163,0.0,-999.0,71,-99.99,,,0.00,weatherlink.com 1.10,2013-01-02 01:21:00,
2013-01-01 20:36:00,70.5,61.0,30.06,SSE,163,0.0,-999.0,73,-99.99,,,0.00,weatherlink.com 1.10,2013-01-02 01:36:00,
2013-01-01 20:51:00,70.1,61.0,30.07,SSE,163,0.0,-999.0,74,-99.99,,,0.00,weatherlink.com 1.10,2013-01-02 01:51:00,
2013-01-01 21:06:00,70.5,61.0,30.07,South,187,0.0,-999.0,73,-99.99,,,0.00,weatherlink.com 1.10,2013-01-02 02:06:00,
2013-01-01 21:21:00,71.2,63.0,30.07,SSE,156,0.0,-999.0,74,-99.99,,,0.00,weatherlink.com 1.10,2013-01-02 02:21:00,
2013-01-01 21:36:00,70.8,62.0,30.07,SSE,156,0.0,-999.0,74,-99.99,,,0.00,weatherlink.com 1.10,2013-01-02 02:36:00,
2013-01-01 21:52:00,70.5,62.0,30.07,SSE,156,0.0,-999.0,75,-99.99,,,0.00,weatherlink.com 1.10,2013-01-02 02:52:00,
2013-01-01 22:07:00,70.1,62.0,30.07,SSE,156,0.0,-999.0,75,-99.99,,,0.00,weatherlink.com 1.10,2013-01-02 03:07:00,
2013-01-01 22:22:00,69.6,62.0,30.07,SSE,156,0.0,-999.0,76,-99.99,,,0.00,weatherlink.com 1.10,2013-01-02 03:22:00,
2013-01-01 22:37:00,68.8,62.0,30.06,SSE,156,0.0,-999.0,78,-99.99,,,0.00,weatherlink.com 1.10,2013-01-02 03:37:00,
2013-01-01 22:52:00,67.9,62.0,30.06,SSE,155,0.0,-999.0,80,-99.99,,,0.00,weatherlink.com 1.10,2013-01-02 03:52:00,
2013-01-01 23:07:00,68.2,61.0,30.06,SE,142,0.0,-999.0,79,-99.99,,,0.00,weatherlink.com 1.10,2013-01-02 04:07:00,
2013-01-01 23:22:00,67.7,61.0,30.05,South,173,0.0,-999.0,80,-99.99,,,0.00,weatherlink.com 1.10,2013-01-02 04:22:00,
2013-01-01 23:37:00,66.6,61.0,30.05,South,173,0.0,-999.0,83,-99.99,,,0.00,weatherlink.com 1.10,2013-01-02 04:37:00,
2013-01-01 23:52:00,66.2,61.0,30.04,SSE,163,0.0,-999.0,84,-99.99,,,0.00,weatherlink.com 1.10,2013-01-02 04:52:00,